Location: *
(50.3194°N, 7.1067°E)
Time: 12:18:48
(UTC+00:00)

SPOT 3 Rocket - Pass Details

Date: 22 September 2019
Orbit: 780 x 794 km, 98.8° (Epoch: 21 October)

Event Time Altitude Azimuth Distance (km) Brightness Sun altitude
Exits shadow 18:09:18 - 133° (SE) 2,996 6.1 -7.0°
Reaches altitude 10° 18:11:05 10° 126° (SE) 2,332 5.5 -7.3°
Maximum altitude 18:15:41 34° 63° (ENE) 1,262 4.3 -8.0°
Drops below altitude 10° 18:20:19 10° 360° (N) 2,349 6.2 -8.7°
Sets 18:22:48 0° 351° (N) 3,284 7.1 -9.1°
